RH
62 68 65 69 68 50 45 49 58 43 60 53 55 55 46 44 49 52 69 56 56 52 59 62 62 63 63 60 58 59 61 60 61 68 75 84 88 94 93 90 85 84 86 87
49 72 67 62 52 47 50 62 50 47 59 58 58 55 49 45 47 53 53 59 63 65 62 61 63 69 62 65 67 67 64 65 65 69 75 86 92 94 96 93 87 83 84 87
51 65 58 56 52 50 66 65 71 67 63 60 62 33 37 47 44 45 49 60 65 70 64 59 59 64 66 68 68 68 70 72 70 64 71 78 84 89 91 91 92 88 86 88
64 60 60 60 59 52 47 68 66 69 67 48 59 33 46 58 50 46 55 56 67 66 62 56 57 57 57 58 66 70 71 73 71 72 70 74 78 82 88 94 95 93 89 90
63 65 64 62 67 58 68 67 73 77 90 87 74 87 59 63 49 49 67 69 69 68 64 58 60 59 62 65 71 75 76 76 77 82 71 74 76 80 84 91 91 93 92 90
70 64 67 67 61 64 67 68 68 90 88 83 70 81 68 71 59 56 70 67 61 66 54 46 47 46 48 51 56 68 73 75 79 84 86 81 77 76 77 78 85 88 93 95
72 78 74 67 71 74 62 70 68 60 79 69 84 84 69 51 56 54 57 56 64 48 46 46 47 47 46 46 51 52 59 61 65 76 84 87 84 79 77 76 82 85 91 94
67 52 78 72 75 79 74 58 70 31 52 60 64 84 61 50 61 58 56 57 43 42 42 45 48 51 52 49 53 56 58 61 63 65 70 79 83 85 80 77 79 89 91 93
65 59 70 69 73 65 78 86 67 61 78 82 71 54 51 57 61 62 54 42 40 40 42 43 46 51 52 54 55 60 62 61 60 62 64 66 72 80 82 77 79 85 88 84
59 42 70 77 72 79 76 64 68 83 41 52 63 55 74 70 63 51 45 41 40 44 46 41 44 50 52 55 58 59 60 60 60 61 60 59 68 73 78 79 76 77 78 84
57 41 49 70 74 65 81 82 78 72 70 53 43 59 61 69 63 49 45 42 44 59 51 45 52 55 55 58 59 60 61 61 61 61 62 64 64 65 70 73 73 73 73 76
71 52 70 54 73 71 66 59 66 66 37 70 58 61 40 65 56 46 43 44 60 67 55 54 58 59 60 61 61 61 61 62 61 62 65 66 65 65 66 66 67 69 70 69
55 49 63 38 60 68 71 72 65 65 76 73 66 45 43 73 62 46 44 50 53 62 64 61 61 61 63 63 63 63 64 65 65 67 70 70 70 71 71 70 68 66 65 64
51 56 39 40 30 64 64 58 72 70 90 75 66 48 48 57 63 54 45 51 55 62 57 63 62 63 67 66 66 66 67 68 69 72 75 77 76 76 76 75 74 72 70 69
61 62 75 64 56 53 55 52 61 80 69 53 48 53 38 35 52 50 42 49 53 62 65 62 63 66 69 70 68 67 69 70 72 76 78 78 78 78 79 78 79 79 78 73
76 66 79 74 66 71 72 66 61 55 54 63 51 49 33 33 43 45 42 51 58 62 64 61 64 66 69 74 71 69 71 72 75 78 79 77 78 80 81 82 82 85 83 82
79 76 83 86 79 73 72 66 66 71 65 56 66 50 50 49 47 47 50 57 61 64 62 64 66 68 72 70 70 73 75 76 78 81 79 79 81 82 81 84 86 82 83 88
85 79 82 90 80 87 59 50 58 59 57 55 53 51 46 47 50 54 54 58 62 62 63 63 63 67 68 70 68 73 72 73 76 77 79 80 82 83 82 86 88 89 89 89
73 78 83 88 92 73 51 45 46 49 43 48 50 46 49 62 60 59 56 64 66 69 64 65 68 72 72 67 68 74 67 71 72 70 78 78 81 82 83 84 85 87 90 88
70 71 74 93 94 88 60 43 42 44 57 53 55 60 65 73 75 64 63 65 64 64 65 66 70 70 65 58 71 72 64 71 64 68 74 80 83 85 85 88 86 88 92 91
84 87 80 80 92 82 60 53 46 67 62 56 58 57 65 67 62 59 67 66 69 67 68 67 69 66 58 63 68 63 62 59 58 70 74 78 78 80 85 89 91 91 91 91
79 88 91 87 95 93 60 51 52 50 63 58 58 58 59 60 61 65 66 68 69 71 70 66 66 62 57 62 64 59 57 54 64 70 75 75 70 67 68 90 89 92 94 95
77 64 71 71 70 58 61 52 54 57 63 68 62 58 60 63 65 65 69 71 71 73 75 66 65 63 62 65 63 60 54 54 59 66 69 69 65 70 79 90 88 91 92 96
70 64 70 66 61 63 62 56 57 61 66 64 62 62 63 70 74 70 73 77 78 72 64 59 58 64 69 69 62 59 55 56 63 66 66 65 71 66 72 81 90 93 92 92
75 78 77 80 68 66 67 62 57 60 58 59 60 65 70 72 75 81 78 78 68 65 62 62 67 74 74 74 68 59 56 60 64 64 64 66 67 72 72 78 82 90 90 91
73 72 73 71 65 71 68 63 59 65 69 78 80 82 84 86 86 80 81 72 73 79 80 85 86 89 83 78 69 60 61 63 69 69 67 68 70 71 76 83 81 70 69 68
Wind_Speed
5 9 3 2 2 3 5 3 0 2 3 5 4 9 12 10 4 8 3 4 2 4 3 4 2 3 3 3 3 4 4 4 1 1 2 2 3 3 3 4 5 5 4 5
8 4 1 2 3 4 4 2 2 4 2 3 6 13 7 4 3 4 4 5 5 4 3 2 1 3 3 5 6 6 6 6 3 2 2 2 1 3 4 4 5 5 5 5
7 1 2 2 5 4 4 2 1 2 7 1 7 8 5 1 3 6 7 4 4 3 2 2 3 4 4 6 7 6 7 6 4 3 1 2 2 2 3 2 3 3 5 4
6 2 2 4 4 2 1 2 2 2 5 3 5 7 5 3 2 4 6 4 3 2 2 0 2 5 5 6 5 6 6 5 4 3 3 3 3 3 3 3 3 5 5 5
1 2 4 5 2 2 2 2 2 2 4 5 1 4 8 3 3 2 3 2 1 2 4 5 5 5 5 6 6 6 6 6 5 4 5 4 5 4 4 4 6 5 5 6
3 0 3 2 3 3 3 4 7 5 3 4 2 6 7 4 4 3 2 3 2 3 4 4 4 5 5 6 6 6 7 6 6 5 6 7 8 7 5 4 4 4 4 4
4 2 2 1 2 1 6 7 5 7 5 7 2 3 10 4 3 6 8 6 3 2 2 4 6 7 7 8 8 6 7 8 7 6 5 6 8 7 8 7 5 5 4 3
4 6 1 2 2 2 3 5 7 6 2 6 3 7 8 5 1 5 5 6 5 5 2 2 5 5 6 7 7 8 8 7 8 7 7 6 7 4 5 6 5 5 5 5
3 2 2 3 2 3 2 2 2 5 2 3 4 8 7 4 4 4 7 6 7 5 1 3 5 5 6 6 7 7 7 7 8 8 6 7 7 6 6 7 6 5 5 5
3 2 1 1 2 2 2 4 3 3 1 5 6 6 7 6 8 7 7 7 6 2 2 4 4 5 5 5 5 7 7 7 7 7 6 6 7 6 6 5 7 6 6 5
3 3 2 3 4 6 2 2 2 2 4 4 3 9 7 9 9 10 9 7 6 2 1 2 2 5 5 5 5 6 6 7 7 7 7 7 7 7 6 6 6 6 6 6
1 4 4 6 1 3 3 5 6 6 4 2 2 11 2 5 8 7 7 7 3 0 1 2 3 5 5 6 6 7 7 7 7 6 6 7 7 7 7 7 7 6 6 6
4 1 3 8 5 2 4 5 4 3 3 7 6 8 3 1 4 5 8 7 4 2 0 1 5 6 6 7 7 7 7 7 7 6 7 7 7 7 7 7 7 7 7 7
4 3 6 8 4 4 4 5 6 6 4 4 9 8 3 5 8 7 7 7 6 3 1 2 5 6 6 5 6 6 7 6 6 6 6 7 7 7 7 7 7 7 7 7
4 3 3 6 8 5 6 7 8 10 7 8 1 11 5 8 11 12 8 6 5 2 1 3 4 6 6 6 6 6 6 6 6 7 7 7 7 7 7 8 8 7 7 7
1 3 1 5 3 4 7 12 14 16 13 12 17 25 15 12 5 5 7 7 4 3 3 5 5 5 6 6 6 5 6 7 6 7 7 7 7 7 7 7 8 7 8 7
5 3 2 6 5 7 8 8 9 5 5 9 10 11 3 1 6 8 7 7 6 5 5 6 6 5 4 6 6 6 6 6 6 6 6 7 7 7 7 7 8 9 9 8
6 5 3 4 4 2 7 3 7 9 7 13 8 5 4 4 3 3 5 6 7 5 6 5 5 6 5 5 6 6 6 6 6 6 6 7 7 7 7 7 7 7 5 7
3 5 2 3 3 8 9 2 4 5 5 2 10 8 2 2 3 1 5 6 5 4 4 4 4 4 4 4 5 5 6 6 6 6 6 6 7 8 8 9 9 8 6 7
3 1 4 2 4 6 3 1 0 2 5 4 2 2 4 3 1 5 5 5 6 6 4 6 6 3 4 4 4 5 6 6 6 6 7 7 7 6 8 7 9 6 5 8
3 1 9 6 4 9 7 6 1 2 3 3 3 3 1 4 6 4 3 5 3 5 6 6 5 5 5 4 3 6 6 7 6 6 6 6 6 7 7 7 5 6 8 8
8 8 5 4 4 10 2 0 4 4 1 3 4 4 4 6 7 6 7 6 6 6 6 5 4 5 5 5 3 6 6 6 6 6 6 7 7 6 6 7 7 6 6 7
3 6 5 11 8 2 2 3 1 4 1 3 5 8 7 8 7 8 4 5 6 8 7 3 4 6 7 6 5 6 7 7 7 7 7 7 7 6 6 6 7 6 5 5
3 1 3 0 1 3 4 3 1 1 2 5 5 7 7 8 3 3 4 5 5 5 5 3 5 7 8 6 6 7 8 8 7 7 8 8 7 9 7 5 5 5 6 6
4 4 4 7 7 8 2 5 8 5 6 9 9 8 3 4 4 2 6 7 6 6 6 4 6 7 9 8 8 7 8 7 7 8 9 9 7 7 8 7 7 5 6 7
4 5 8 12 7 6 7 8 11 9 6 2 1 1 2 2 4 4 6 6 5 7 6 6 7 7 10 8 9 10 7 7 7 9 7 6 6 7 7 7 9 11 15 16
Wind_Direction
13 65 76 104 41 115 107 103 245 294 22 337 266 287 300 302 333 349 326 247 244 67 54 104 147 170 199 244 265 272 287 279 275 315 336 342 302 306 304 306 303 313 309 332
26 77 212 299 43 78 58 89 320 290 2 6 342 295 281 310 4 339 73 108 113 81 86 124 245 265 307 295 284 287 277 277 258 212 239 235 265 282 265 281 298 303 321 326
115 140 338 51 42 75 37 69 47 256 323 49 319 316 348 356 63 39 38 62 75 149 193 257 260 269 289 291 294 294 289 282 268 240 284 302 306 304 301 289 301 297 305 302
80 324 74 71 73 57 80 41 73 21 35 277 34 278 301 325 102 49 28 46 71 108 186 38 347 332 326 305 310 299 296 292 262 247 236 231 228 255 241 247 262 291 303 294
251 43 55 68 39 15 138 62 64 72 67 37 318 73 268 308 192 156 88 94 72 61 48 20 354 337 324 338 320 310 306 295 283 256 226 241 258 245 265 270 284 289 291 279
79 314 53 100 67 71 134 75 44 51 68 15 232 126 278 207 199 151 158 189 131 75 33 23 12 14 0 352 0 355 342 317 311 281 263 247 255 271 280 269 268 267 267 275
22 5 357 80 112 54 65 51 339 353 12 221 246 41 243 264 257 180 173 183 140 143 102 42 29 13 4 4 360 356 357 330 329 319 291 268 259 256 257 267 261 274 269 254
126 326 39 9 84 166 80 133 154 231 238 273 340 241 258 219 102 144 165 163 190 171 141 71 45 27 9 359 358 358 350 338 341 341 324 301 273 255 259 258 258 257 254 253
123 293 5 48 35 93 140 187 164 101 357 34 233 280 293 194 165 167 179 185 196 187 146 53 35 25 9 359 351 351 345 339 342 334 329 323 316 304 280 272 253 256 262 267
177 45 31 21 66 30 170 159 66 2 200 270 286 275 240 210 199 194 203 200 206 176 81 59 43 12 350 349 336 349 348 324 315 325 331 322 304 312 303 294 284 269 268 255
120 109 293 42 200 182 136 230 87 130 161 198 294 268 212 204 191 189 209 200 194 157 85 88 47 350 334 339 351 332 336 335 336 337 326 328 327 328 324 310 297 283 278 275
173 141 210 211 288 203 198 208 159 131 225 230 156 272 305 216 191 188 205 198 189 48 139 113 358 327 342 348 347 340 334 334 325 319 324 324 322 330 333 326 318 311 293 291
185 355 9 342 356 347 231 206 169 117 80 207 152 261 0 159 203 226 202 206 204 257 64 7 352 346 344 340 337 330 327 324 320 323 327 328 331 333 327 323 321 321 316 302
85 162 192 195 209 135 218 208 192 162 150 201 227 277 227 224 224 240 213 207 206 221 135 349 343 333 323 306 301 306 307 310 311 319 322 324 324 324 320 315 319 323 321 313
120 240 174 266 248 251 243 222 195 205 205 198 225 237 234 225 219 219 210 196 197 168 156 327 302 295 301 327 330 326 318 322 326 333 335 330 322 320 321 332 330 324 319 314
133 257 141 284 326 225 263 247 233 235 234 258 265 278 282 259 206 201 210 187 185 191 283 297 290 294 306 307 300 308 315 323 334 337 332 327 329 326 324 325 326 322 319 319
164 158 61 272 348 319 293 247 204 190 203 209 223 250 256 284 221 218 188 188 181 206 258 274 280 273 293 330 328 326 319 315 328 323 317 318 320 324 324 318 323 329 327 321
149 138 147 264 345 239 239 220 178 201 228 216 261 249 248 254 232 135 157 172 197 227 252 289 317 320 316 312 314 316 324 329 329 326 322 319 321 319 317 318 314 310 306 313
170 141 217 241 225 298 294 149 132 167 288 219 243 273 187 92 69 296 196 186 196 224 252 249 257 240 266 289 308 323 329 330 331 327 323 322 321 321 321 321 319 311 311 318
95 39 168 146 212 237 262 34 359 145 283 349 59 77 143 81 30 257 203 198 230 254 236 266 252 231 268 288 314 322 316 322 317 314 309 304 303 303 308 302 311 303 298 299
149 191 220 231 267 284 264 291 315 115 263 1 17 357 320 219 213 233 182 248 267 257 256 250 230 237 244 279 302 307 309 303 285 289 293 293 294 297 286 295 289 297 308 309
171 162 194 153 213 269 242 83 189 213 35 349 338 294 266 252 272 252 241 249 268 279 291 273 248 269 268 277 286 291 294 283 292 296 296 298 300 299 299 294 299 295 291 303
239 205 185 191 214 214 223 218 82 138 245 306 294 284 270 264 236 245 280 317 325 314 301 289 255 277 293 282 252 278 276 293 300 301 293 289 291 280 277 284 293 301 294 281
258 104 236 217 332 251 321 294 180 357 307 313 287 283 278 261 311 304 318 309 315 301 293 289 301 287 283 291 250 237 261 272 276 281 285 284 278 292 281 267 260 274 289 293
224 357 290 261 280 307 44 336 320 294 287 280 278 273 315 347 351 9 332 297 294 286 289 282 277 276 276 278 276 257 253 264 269 271 271 274 268 266 277 264 258 252 247 247
182 223 267 287 311 277 294 293 295 296 296 327 51 27 23 71 323 288 279 274 279 290 286 285 274 263 272 273 272 274 246 255 255 269 274 261 269 271 269 274 289 267 270 281